Location: Newark
(7.0858°N, 171.3717°E)
Time: 03:48:48
(UTC+00:00)

Vanguard 2 - Pass Details

Date: 28 November 2020
Orbit: 553 x 2937 km, 32.9° (Epoch: 26 January)

Event Time Altitude Azimuth Distance (km) Brightness Sun altitude
Rises 08:39:04 0° 265° (W) 4,306 12.3 -34.3°
Reaches altitude 10° 08:42:30 10° 250° (WSW) 3,692 11.8 -35.1°
Maximum altitude 08:49:48 22° 203° (SSW) 3,498 11.1 -36.8°
Drops below altitude 10° 08:59:47 10° 159° (SSE) 5,158 11.7 -39.1°
Sets 09:06:00 0° 146° (SE) 6,503 12.2 -40.5°
